Location: Aufkirchen
(47.9603°N, 11.3653°E)
Time: 17:30:09
(UTC+01:00)

Transit 2A - Pass Details

Date: 26 November 2020
Orbit: 599 x 960 km, 66.7° (Epoch: 26 January)

Event Time Altitude Azimuth Distance (km) Brightness Sun altitude
Rises 01:40:52 0° 327° (NNW) 3,390 - -56.5°
Reaches altitude 10° 01:43:41 10° 337° (NNW) 2,390 - -56.2°
Maximum altitude 01:48:33 32° 40° (NE) 1,270 - -55.6°
Drops below altitude 10° 01:52:59 10° 104° (ESE) 2,163 - -55.0°
Sets 01:55:25 0° 114° (ESE) 3,022 - -54.7°
